This demonstration page uses our WeatherBlox Daily Observations layout. Learn more.

Left ArrowRight Arrow

Hourly Observations for July 26, 2022

Temp ( °F °C ) Dew Point ( °F °C ) Humidity (%) Winds ( mph kmh ) Pressure ( in mb ) Visibility ( mi km ) Precip ( " mm )
12:53 am 00:53 Partly Cloudy 57 13.9 48 8.9 72 72 Calm 29.93 1014 10 16 0.00 0.00
1:53 am 01:53 Clear 55 12.8 47 8.3 74 74 Calm 29.92 1013 10 16 0.00 0.00
2:53 am 02:53 Clear 52 11.1 47 8.3 83 83 SW 6 9 29.93 1014 10 16 0.00 0.00
3:53 am 03:53 Clear 50 10 46 7.8 86 86 Calm 29.94 1014 10 16 0.00 0.00
4:53 am 04:53 Clear 49 9.4 44 6.7 83 83 Calm 29.97 1015 10 16 0.00 0.00
5:53 am 05:53 Clear 48 8.9 43 6.1 83 83 Calm 30.00 1016 10 16 0.00 0.00
6:53 am 06:53 Sunny 50 10 46 7.8 86 86 Calm 30.00 1016 10 16 0.00 0.00
7:53 am 07:53 Sunny 58 14.4 47 8.3 67 67 Calm 30.01 1016 10 16 0.00 0.00
8:53 am 08:53 Mostly Sunny 65 18.3 48 8.9 54 54 Calm 30.03 1017 10 16 0.00 0.00
9:53 am 09:53 Mostly Cloudy 70 21.1 49 9.4 47 47 Calm 30.02 1017 10 16 0.00 0.00
10:53 am 10:53 Mostly Sunny 78 25.6 46 7.8 32 32 VRB 5 7 29.99 1016 10 16 0.00 0.00
11:53 am 11:53 Sunny 82 27.8 41 5 23 23 undefined N/A 29.98 1015 10 16 0.00 0.00
12:53 pm 12:53 Sunny 86 30 36 2.2 17 17 VRB 5 7 29.96 1014 10 16 0.00 0.00
1:53 pm 13:53 Sunny 89 31.7 39 3.9 17 17 N 8 13 29.94 1014 10 16 0.00 0.00
2:53 pm 14:53 Sunny 89 31.7 30 -1.1 12 12 WNW 8 13 29.92 1013 10 16 0.00 0.00
3:53 pm 15:53 Sunny 91 32.8 30 -1.1 11 11 NNW 10 17 29.91 1013 10 16 0.00 0.00
4:53 pm 16:53 Sunny 90 32.2 27 -2.8 10 10 SE 7 11 29.89 1012 10 16 0.00 0.00
5:53 pm 17:53 Sunny 90 32.2 27 -2.8 10 10 Calm 29.89 1012 10 16 0.00 0.00
6:53 pm 18:53 Sunny 88 31.1 31 -0.6 13 13 VRB 3 6 29.88 1012 10 16 0.00 0.00
7:53 pm 19:53 Sunny 81 27.2 44 6.7 27 27 Calm 29.86 1011 10 16 0.00 0.00
8:53 pm 20:53 Clear 75 23.9 36 2.2 24 24 ESE 3 6 29.88 1012 10 16 0.00 0.00
9:53 pm 21:53 Clear 71 21.7 38 3.3 30 30 Calm 29.91 1013 10 16 0.00 0.00
10:53 pm 22:53 Clear 61 16.1 41 5 48 48 SSE 5 7 29.92 1013 10 16 0.00 0.00
11:53 pm 23:53 Clear 60 15.6 43 6.1 53 53 ESE 3 6 29.93 1014 10 16 0.00 0.00

Powered by AerisWeather